LA9UTA-13 Weather Reports


time (UTC)temp
C
wind
direction
speed
KPH
gust
KPH
rain 1hr
cm
rain 24hr
cm
rain mn
cm
humidity
%
barometer
mb
20260506001801 -1 159 0.0 0.0 0.00 0.00 0.00 68 1013.4
20260505235801 -1 149 0.0 0.0 0.00 0.00 0.00 66 1013.4
20260505233801 0 162 1.6 1.6 0.00 0.00 0.00 65 1013.3
20260505231801 -1 185 1.6 1.6 0.00 0.00 0.00 71 1013.4
20260505230901 -1 182 1.6 1.6 0.00 0.00 0.00 68 1013.4
20260505225801 -1 182 1.6 1.6 0.00 0.00 0.00 68 1013.4
20260505223801 0 336 3.2 4.8 0.00 0.00 0.00 65 1013.3
20260505221802 -1 180 1.6 3.2 0.00 0.00 0.00 67 1013.4
20260505215801 0 117 1.6 1.6 0.00 0.00 0.00 62 1013.3
20260505213801 0 165 1.6 1.6 0.00 0.00 0.00 60 1012.3
20260505211801 0 127 0.0 1.6 0.00 0.00 0.00 57 1012.3
20260505205801 0 320 3.2 4.8 0.00 0.00 0.00 61 1012.3
20260505203801 1 168 0.0 1.6 0.00 0.00 0.00 53 1012.2
20260505201801 1 236 3.2 3.2 0.00 0.00 0.00 55 1012.2
20260505195801 2 178 1.6 1.6 0.00 0.00 0.00 52 1012.1
20260505193801 3 175 0.0 0.0 0.00 0.00 0.00 47 1012.0
20260505191801 4 181 3.2 3.2 0.00 0.00 0.00 40 1011.9
20260505185802 6 177 3.2 4.8 0.00 0.00 0.00 35 1010.7
20260505183802 7 274 6.4 11.3 0.00 0.00 0.00 33 1010.5
20260505182253 8 213 3.2 4.8 0.00 0.00 0.00 30 1010.4
20260505181803 7 247 4.8 4.8 0.00 0.00 0.00 32 1010.5
20260505175802 8 195 1.6 3.2 0.00 0.00 0.00 31 1010.4
20260505173802 8 213 3.2 4.8 0.00 0.00 0.00 30 1010.4
20260505171802 8 240 8.0 11.3 0.00 0.00 0.00 29 1010.4
20260505165802 8 264 8.0 11.3 0.00 0.00 0.00 27 1010.3
20260505163802 8 269 11.3 14.5 0.00 0.00 0.00 27 1010.4
20260505161802 7 320 9.7 12.9 0.00 0.00 0.00 31 1010.4
20260505151802 8 265 14.5 22.5 0.00 0.00 0.00 23 1010.4
20260505123802 9 259 6.4 9.7 0.00 0.00 0.00 26 1009.3
20260505121802 8 349 9.7 12.9 0.00 0.00 0.00 27 1009.4
20260505115802 8 286 9.7 11.3 0.00 0.00 0.00 28 1009.4
20260505113802 8 333 12.9 14.5 0.00 0.00 0.00 27 1009.3
20260505111802 8 137 8.0 9.7 0.00 0.00 0.00 29 1009.4
20260505101802 7 229 4.8 4.8 0.00 0.00 0.00 35 1009.5
20260505095804 7 27 9.7 11.3 0.00 0.00 0.00 31 1010.5
20260505093802 6 254 6.4 11.3 0.00 0.00 0.00 35 1009.6
20260505091802 5 286 4.8 9.7 0.00 0.00 0.00 38 1009.8
20260505085802 6 20 4.8 6.4 0.00 0.00 0.00 38 1009.6
20260505083802 5 143 0.0 0.0 0.00 0.00 0.00 38 1009.7
20260505081802 5 283 11.3 14.5 0.00 0.00 0.00 39 1009.7
20260505080457 6 159 3.2 4.8 0.00 0.00 0.00 42 1009.7
20260505075802 5 165 6.4 12.9 0.00 0.00 0.00 39 1009.7
20260505073802 6 159 3.2 4.8 0.00 0.00 0.00 42 1009.7
20260505071802 5 355 9.7 11.3 0.00 0.00 0.00 42 1009.8
20260505065802 3 272 11.3 12.9 0.00 0.00 0.00 44 1009.8
20260505063802 3 359 6.4 9.7 0.00 0.00 0.00 44 1009.8
20260505061802 3 139 1.6 3.2 0.00 0.00 0.00 54 1009.9
20260505055802 4 215 4.8 4.8 0.00 0.00 0.00 45 1009.8
20260505053802 5 152 3.2 4.8 0.00 0.00 0.00 50 1009.7
20260505051801 3 127 3.2 3.2 0.00 0.00 0.00 57 1009.9
20260505035804 -1 136 0.0 0.0 0.00 0.00 0.00 72 1009.3
20260505033802 -1 140 0.0 0.0 0.00 0.00 0.00 69 1009.3
20260505033134 0 139 0.0 1.6 0.00 0.00 0.00 66 1009.2
20260505031801 0 139 0.0 1.6 0.00 0.00 0.00 66 1009.2
20260505025802 0 192 1.6 1.6 0.00 0.00 0.00 63 1009.2
20260505023802 0 132 1.6 1.6 0.00 0.00 0.00 62 1009.2
20260505021802 0 124 3.2 3.2 0.00 0.00 0.00 62 1008.2
20260505015802 1 302 6.4 12.9 0.00 0.00 0.00 59 1008.0
20260505014616 1 257 9.7 12.9 0.00 0.00 0.00 59 1008.0
20260505013802 1 215 4.8 6.4 0.00 0.00 0.00 59 1008.0
20260505011802 1 257 9.7 12.9 0.00 0.00 0.00 59 1008.0
20260505005802 0 140 8.0 11.3 0.00 0.00 0.00 63 1008.2
20260505003802 1 164 3.2 4.8 0.00 0.00 0.00 59 1008.0